Regional Weather Roundup
Issued by NWS Grand Forks, ND

Home | Current Version | Previous Version | Text Only | Print | Product List | Glossary On
Versions: 1 2 3 4 5 6 7 8 9 10 11 12 13 14 15 16 17 18 19 20 21 22 23 24 25 26 27 28 29 30 31 32 33 34 35 36 37 38 39 40 41 42 43 44 45 46 47 48 49 50
000
ASUS43 KFGF 201731
RWRFGF
PRAIRIE TO PINES  WEATHER ROUNDUP
NATIONAL WEATHER SERVICE EASTERN NORTH DAKOTA/GRAND FORKS ND
1200 PM CDT SUN AUG 20 2017

 **SATELLITE DATA USED TO AUGMENT SKY COVER AT AUTOMATED STATIONS**
 *****  WEATHER ACROSS EASTERN NORTH DAKOTA  *****

CITY           SKY/WX    TMP DP  RH WIND       PRES   REMARKS
GRAND FORKS    FAIR      75  48  38 N9        29.98R
GRAND FRKS AFB FAIR      74  45  35 N10G20    30.00R
DEVILS LAKE    FAIR      69  44  40 NW12G21   30.04R
FARGO          FAIR      71  53  52 N12       29.98R
WAHPETON ARPT  FAIR      64  52  63 N12       29.97S
$$

 ***** WEATHER ACROSS CENTRAL AND WESTERN NORTH DAKOTA  *****

CITY           SKY/WX    TMP DP  RH WIND       PRES   REMARKS
BISMARCK       FAIR      68  47  46 N8        30.08S
MINOT          FAIR      72  41  32 W8        30.05F
JAMESTOWN      FAIR      65  49  56 N9        30.03S
MINOT AFB      FAIR      71  38  29 W7        30.05S
GARRISON         N/A     69  41  36 NW8       30.07S
WILLISTON      FAIR      69  38  32 CALM      30.08F
DICKINSON      FAIR      63  46  54 SE3       30.10R
HETTINGER      CLOUDY    62  44  51 E8        30.11S
$$

 *****  OTHER AIRPORT OBSERVATIONS IN OUR AREA  *****

CITY           SKY/WX    TMP DP  RH WIND       PRES   REMARKS
WALHALLA       FAIR      72  70  94 NW13      29.98S
GRAFTON AIRPOR NOT AVBL
VALLEY CITY AR NOT AVBL
CANDO          FAIR      72  45  37 VRB3G17   30.05F
CAVALIER APRT  FAIR      72  50  46 NW13      29.97S
GWINNER        SUNNY     68  55  64 N7G14     30.00S
SHEYENNE NWR     N/A     70  52  52 N7        29.95
ROLLA          FAIR      70  43  37 NW12      30.04S
 ***** THE ABOVE OBSERVATIONS ARE NON NWS ARE NOT QUALITY
       CONTROLLED AND MAY MIS-REPORT RAIN FOR SNOW...
$$

  *****  WEATHER ACROSS NORTHERN MINNESOTA  *****

CITY           SKY/WX    TMP DP  RH WIND       PRES   REMARKS
FLAG ISLAND      N/A     72  48  43 NW8       29.89R HAZE
WARROAD        FAIR      73  55  53 W10       29.93R
ROSEAU         FAIR      75  52  43 NW16      29.93S
HALLOCK        FAIR      73  45  35 NW9G18    29.96R
THF RVR FALLS  FAIR      71  48  43 NW13      29.98S
BAUDETTE       FAIR      74  53  48 NW16      29.91R
WASKISH        PTSUNNY   72  55  56 W8        29.93R
CROOKSTON      FAIR      73  46  38 N10G20    29.98S
STEPHEN NDAWN    N/A     75  45  33 NW12        N/A
GREENBUSH NDAW   N/A     73  50  43 W9          N/A
$$
  *****  WEATHER ACROSS CENTRAL AND WEST MINNESOTA  *****

CITY           SKY/WX    TMP DP  RH WIND       PRES   REMARKS
FOSSTON        FAIR      72  52  49 NW10      29.98S
BEMIDJI        FAIR      70  55  60 NW10      29.95S
PARK RAPIDS    FAIR      70  55  59 N13       29.96R
ELBOW LAKE     FAIR      65  58  77 N5        29.98S
WADENA         FAIR      66  57  72 NW5       29.96S
DETROIT LAKES  FAIR      68  57  68 NW8       29.99F
MOORHEAD       FAIR      70  54  56 N9        29.99S
FERGUS FALLS   FAIR      66  55  68 NE8       29.96S
MORRIS MN      FAIR      66  59  77 N8        29.97S
STAPLES        FAIR      68  57  68 N6        29.96S
$$
  *****  WEATHER ELSEWHERE ACROSS MINNESOTA  *****

CITY           SKY/WX    TMP DP  RH WIND       PRES   REMARKS
DULUTH         CLOUDY    71  65  81 W15       29.90R
INTRNTL FALLS  FAIR      72  57  59 NW15G22   29.88R
ELY            CLOUDY    70  63  78 W9        29.87S
CLOQUET        FAIR      73  63  68 W6        29.91R
WHEATON        FAIR      66  54  63 N5        30.01S
BRAINERD       FAIR      72  62  71 NW7       29.95R
HIBBING        FAIR      71  63  75 NW9       29.90R
ALEXANDRIA     FAIR      67  60  78 N7        29.98S
SAINT CLOUD    FAIR      77  66  68 N8        29.94R
MINNEAPOLIS    FAIR      82  67  60 W9        29.94R
$$

  *****  WEATHER ACROSS SOUTH DAKOTA  *****

CITY           SKY/WX    TMP DP  RH WIND       PRES   REMARKS
SIOUX FALLS    PTSUNNY   79  68  69 NE7       29.98R
BROOKINGS      FAIR      73  60  63 N10       30.00R
WATERTOWN      FAIR      67  55  65 NE6       30.01S
HURON          FAIR      75  55  49 NE12      29.99F
SISSETON         N/A     67  56  67 NW5       30.00R
ABERDEEN       FAIR      67  53  61 N17       29.97F
MITCHELL       FAIR      78  66  66 NE10      29.99F
PIERRE         FAIR      77  53  43 N9        30.02R
MOBRIDGE       LGT RAIN  67  51  56 NE9       30.03F
RAPID CITY     FAIR      71  47  42 NW3       30.11S
$$

  *****  SOME WEATHER IN NEARBY STATES *****

CITY           SKY/WX    TMP DP  RH WIND       PRES   REMARKS
GLASGOW MT     FAIR      70  33  25 SE12      30.05F
GREAT FALLS MT FAIR      70  35  27 W13       30.05F
CHEYENNE WY    FAIR      72  40  31 N16       30.20S
SCOTTSBLUFF NE FAIR      78  59  51 E12G18    30.09S
OMAHA NE       PTSUNNY   73  66  78 NW7       29.97F
DES MOINES IA  PTSUNNY   78  66  66 N6        29.95S
DAVENPORT IA   PTSUNNY   74  66  76 NE3       30.02F
CHICAGO IL     PTSUNNY   84  64  50 VRB6      30.03F
EAU CLAIRE WI  FAIR      77  65  66 SW9       29.95R
LA CROSSE WI   FAIR      76  66  71 SE9       29.97F
$$

  *****  SOME NATIONAL WEATHER *****

CITY           SKY/WX    TMP DP  RH WIND       PRES   REMARKS
LA GUARDIA NY  PTSUNNY   79  60  52 NW10      30.05S
RALEIGH NC     PTSUNNY   92  63  38 E6        30.12F HX  93
ATLANTA GA     FAIR      89  65  44 E5        30.13S HX  91
NEW ORLEANS LA FAIR      91  77  63 NE8       30.05F HX 104
OKLAHOMA CITY  PTSUNNY   88  70  55 S13       30.01F HX  93
ALBUQUERQUE NM CLOUDY    75  53  46 S10       30.19R
SALT LAKE CITY FAIR      84  44  24 E3        30.05S
LOS ANGELES CA CLOUDY    70  62  76 VRB3      29.96R
BOISE ID       FAIR      69  43  38 NW8       30.07S
SEATTLE WA     FAIR      65  50  58 CALM      30.18S
$$

*** WEATHER ACROSS MANITOBA...SASKATCHEWAN AND ONTARIO ***
                ***ONTARIO***

CITY           SKY/WX    TMP DP  RH WIND       PRES   REMARKS
GERALDTON      PTSUNNY   77  59  53 S21G33    29.77F
THUNDER BAY    PTSUNNY   79  64  61 S13G21    29.77F
SIOUX LOOKOUT  MOSUNNY   72  55  56 NW16G28   29.79R
TORONTO        PTSUNNY   81  61  50 W5        30.06S
BIG TROUT LK   RAIN      63  63 100 W14G21    29.55  FOG
PICKLE LAKE    PTSUNNY   66  55  68 W18G36    29.70R
DRYDEN         MOSUNNY   72  50  46 NW16G24   29.82R
KENORA         MOSUNNY   70  48  46 NW14G21   29.88R
$$
                *** MANITOBA***

CITY           SKY/WX    TMP DP  RH WIND       PRES   REMARKS
BRANDON        MOSUNNY   70  46  43 W9G18     30.00S
DAUPHIN        SUNNY     72  45  37 W17G25    29.93F
ISLAND LAKE    PTSUNNY   66  48  52 W17       29.67R
PILOT MOUND      N/A     68  45  42 NW9         N/A
THE PAS        MOSUNNY   68  46  45 W16G25    29.77R
THOMPSON       PTSUNNY   63  50  63 W12G23    29.61R
WINNIPEG       MOSUNNY   73  46  38 W17       29.94R
LYNN LAKE      LGT RAIN  55  52  88 MISG      29.61R
CHURCHILL      LGT RAIN  55  54  94 E6        29.51R FOG
GILLAM         CLOUDY    59  59 100 SW9       29.50R
$$
                ***SASKATCHEWAN***

CITY           SKY/WX    TMP DP  RH WIND       PRES   REMARKS
ESTEVAN        CLOUDY    68  43  40 VRB9      30.06S
KINDERSLEY     PTSUNNY   57  39  51 SE2       29.98F
LLOYDMINSTER   PTSUNNY   57  45  62 W13       29.94R
PRINCE ALBERT  PTSUNNY   64  45  48 W15       29.91R
REGINA         CLOUDY    66  37  34 SW7       30.02F
YORKTON        SUNNY     68  43  40 W17G24    29.98R
N. BATTLEFORD  CLOUDY    61  43  51 W12       29.96F
LA RONGE       MOSUNNY   64  50  59 SW12G18   29.77S
SASKATOON      CLOUDY    57  46  67 SW13      29.99S
SWIFT CURRENT  CLOUDY    68  32  26 S14       30.01F
$$
NOTE: THESE ARE AUTOMATED STATIONS WITH LIMITED QUALITY CONTROL
      "FAIR" INDICATES FEW OR NO CLOUDS BELOW 12,000 FEET WITH NO
      SIGNIFICANT WEATHER AND/OR OBSTRUCTIONS TO VISIBILITY.
      SKY/WX - SKY CONDITION AND SIGNIFICANT WEATHER.
      TMP - AIR TEMPERATURE.    DP   - DEWPOINT TEMPERATURE.
      RH  - RELATIVE HUMIDITY.  PRES - PRESSURE.
      HX  - HEAT INDEX.         WCI  - WIND CHILL INDEX.
$




USA.gov is the U.S. government's official web portal to all federal, state and local government web resources and services.